Wind_Speed
10 11 13 14 14 16 15 13 9 6 6 7 10 14 18 20 21 21 19 18 16 14 12 11 10 9 8 8 8 8 9 10 11 12 13 13 14 14 15 16 17 17 18 19 19 20 20 21 22
11 12 12 12 11 13 13 10 8 7 7 7 10 14 17 18 19 18 16 13 11 10 9 8 7 6 5 5 5 6 7 9 10 12 13 14 15 16 16 17 18 19 20 21 22 23 24 24 25
13 13 12 11 10 9 9 7 7 7 5 6 9 12 14 16 17 14 12 10 9 9 8 7 6 5 4 4 4 5 6 8 9 11 12 12 13 15 16 17 19 20 21 23 24 26 27 27 28
13 13 11 10 9 8 7 5 4 3 2 5 8 11 12 15 14 11 9 8 9 10 9 8 7 6 5 5 5 5 6 7 7 8 9 10 11 13 15 16 18 19 21 23 24 26 27 28 29
13 12 10 9 9 8 7 5 2 1 5 6 8 10 12 12 12 10 10 10 11 12 11 10 9 8 7 6 5 5 5 5 6 7 8 9 10 12 14 15 16 17 19 20 22 23 25 26 27
14 12 10 9 9 7 7 4 0 4 7 8 8 10 12 11 12 13 13 14 14 14 13 12 10 8 8 7 6 6 6 7 7 8 9 10 11 12 13 14 15 16 18 19 21 23 24 26 27
14 12 10 9 8 8 8 4 1 4 7 8 9 10 11 13 15 16 17 17 16 15 12 12 11 10 10 9 8 8 9 10 11 12 13 14 14 15 16 16 16 17 18 19 20 22 23 25 26
13 13 11 11 11 11 9 5 2 4 7 8 9 11 12 14 16 18 19 18 16 14 12 12 11 10 10 10 10 11 12 13 14 15 16 17 18 19 19 19 19 19 19 20 21 22 23 25 26
12 14 12 12 13 12 11 7 4 5 7 10 12 14 16 17 18 18 18 18 16 14 12 12 11 11 10 11 12 13 14 15 16 17 17 18 18 19 20 21 21 21 21 21 23 24 25 27 28
13 13 11 12 13 14 12 9 8 8 9 11 14 16 18 19 19 18 18 18 16 15 14 13 12 12 11 11 12 13 14 15 17 18 18 18 19 20 21 22 23 23 23 23 24 24 25 26 28
14 14 12 13 14 15 15 14 12 11 12 14 15 18 20 20 19 17 17 18 17 15 15 15 13 13 14 13 13 13 15 16 17 18 19 20 21 22 23 24 24 24 25 25 24 25 25 26 28
18 18 16 15 16 17 18 18 16 15 15 16 18 20 22 22 20 18 17 17 18 17 16 16 15 14 14 14 14 15 15 17 18 20 21 22 23 24 25 25 26 26 26 27 28 28 29 30 31
22 21 18 17 19 20 20 21 18 17 19 20 21 22 24 24 21 19 19 18 18 18 18 17 16 16 15 16 16 16 17 18 20 21 23 25 25 25 25 26 27 28 29 30 31 32 33 33 35
26 23 21 21 22 23 23 22 21 20 23 23 24 25 26 25 21 20 21 20 20 20 19 19 18 17 17 17 17 17 19 21 21 22 23 24 25 25 26 27 28 30 30 32 33 34 35 36 37
28 26 23 25 26 27 26 26 26 25 25 26 27 27 27 25 21 21 22 22 22 22 22 21 20 19 19 18 18 17 18 20 20 21 22 23 24 26 27 29 30 31 33 34 36 37 39 40 41
30 28 27 28 28 29 28 28 28 29 30 30 30 30 28 24 21 21 23 24 25 24 23 22 21 21 21 20 19 19 19 20 21 22 23 25 27 28 30 32 33 35 36 38 40 41 43 45 46
32 31 30 31 30 29 30 29 30 32 33 33 32 31 28 22 20 21 24 26 27 26 24 23 23 23 23 22 22 22 22 24 25 26 27 28 30 32 33 35 37 39 41 42 44 45 47 48 50
34 33 31 30 32 32 33 32 31 32 33 33 32 30 25 21 21 22 25 27 28 26 25 24 25 26 26 25 25 26 27 29 30 31 31 32 34 35 38 40 42 44 46 47 49 50 52 53 54
36 36 33 30 32 36 36 36 34 34 34 33 31 28 24 22 22 24 27 29 28 26 26 27 28 29 29 29 30 31 33 34 35 36 36 37 38 40 42 44 47 48 50 52 53 54 55 56 57
38 38 35 32 34 39 39 40 38 36 34 33 31 29 26 24 24 26 28 29 28 28 28 30 32 33 34 35 35 36 38 39 40 40 41 41 43 45 48 50 52 53 55 56 56 57 58 59 58
40 39 37 35 37 42 43 43 41 39 37 34 31 29 26 25 26 28 31 31 31 31 32 34 37 38 40 41 41 41 42 42 43 44 45 46 48 50 53 56 57 58 58 59 60 60 61 60 58
40 38 38 37 39 42 45 47 44 42 41 37 32 28 26 26 28 31 32 33 33 34 35 37 40 42 44 45 45 44 44 45 46 47 48 49 52 55 58 61 61 61 61 61 62 63 62 59 56
38 37 39 40 42 45 46 50 48 45 42 37 33 30 29 30 31 33 34 35 35 36 38 40 43 45 46 47 47 46 46 48 48 48 50 52 55 59 63 65 64 63 63 63 63 61 57 53 50
37 38 41 42 43 47 45 49 51 46 42 38 35 33 33 33 34 36 36 37 37 38 40 43 45 47 49 48 48 47 47 49 49 50 52 55 59 64 67 66 64 63 63 61 57 53 48 44 42
36 36 39 42 44 45 42 46 49 45 42 39 37 37 37 37 37 38 39 39 39 40 42 44 45 48 48 49 48 48 49 50 50 51 54 58 63 66 66 63 62 61 58 53 48 43 40 39 40
33 35 37 40 42 41 41 44 43 41 40 39 39 39 38 38 38 39 39 38 39 40 42 43 45 47 48 48 48 50 50 51 51 52 56 60 63 64 62 60 58 54 50 46 42 40 39 39 41
31 33 34 38 41 43 43 43 41 39 38 37 36 35 34 34 34 35 35 35 36 39 42 45 46 48 49 50 50 52 51 51 51 54 58 61 62 60 58 56 52 49 46 43 41 41 41 42 45
29 31 35 38 40 43 44 43 40 37 35 34 33 32 33 34 35 35 35 36 37 40 43 46 49 51 52 53 54 52 51 50 52 56 58 59 58 56 54 51 49 46 44 43 43 44 45 48 51
26 30 34 38 41 44 46 44 38 35 33 33 32 32 33 34 35 37 38 38 40 42 45 48 51 53 55 55 52 49 49 50 52 55 56 55 54 52 50 48 46 45 44 45 46 49 51 54 57
29 31 34 37 40 43 47 45 38 36 35 34 34 34 35 35 35 36 38 41 43 45 48 51 54 55 54 51 49 47 49 51 53 53 52 52 51 49 48 46 45 45 46 48 51 54 56 59 61
Wind_Direction
209 204 203 209 213 214 216 223 242 275 300 324 342 345 343 337 332 328 325 322 320 321 319 314 310 304 296 285 275 272 271 274 278 281 282 284 283 282 283 282 282 282 282 281 279 277 276 276 275
197 196 197 199 203 208 211 219 239 266 289 321 340 341 340 336 332 328 326 327 327 327 324 325 328 321 311 302 292 286 282 282 285 286 287 285 283 282 281 281 280 281 283 283 283 282 282 281 280
190 189 188 187 193 197 197 211 242 262 290 327 340 341 341 339 335 331 333 337 339 336 334 338 345 343 335 326 317 306 299 297 296 296 295 291 288 285 283 283 283 284 285 285 284 283 282 282 282
186 187 186 179 184 180 180 196 241 257 320 348 349 344 338 336 339 339 339 347 347 344 341 343 351 358 3 358 346 329 317 312 311 309 305 300 296 294 291 290 288 288 287 286 286 285 284 283 282
188 189 182 176 172 176 186 206 236 63 39 20 360 345 336 336 340 342 346 348 346 345 345 343 347 357 7 6 358 347 334 320 315 312 306 301 298 297 297 296 295 292 290 287 286 284 284 284 283
194 197 187 174 183 201 216 237 29 57 39 23 1 343 339 338 343 348 349 348 345 345 345 344 344 350 355 354 347 338 329 318 311 308 304 302 300 299 297 297 295 294 292 290 287 285 285 284 282
201 206 200 190 201 222 239 252 325 36 25 10 354 342 339 339 345 349 350 348 349 354 355 358 358 352 347 341 333 324 317 312 309 307 307 305 302 299 296 294 293 290 289 287 285 283 282 282 281
211 215 213 212 220 234 249 259 307 5 4 356 345 339 338 344 350 352 352 354 358 5 3 3 359 350 339 330 323 316 311 309 308 308 308 307 304 301 299 295 292 289 285 282 279 278 277 278 277
224 222 227 228 238 255 266 267 286 321 340 341 337 334 338 345 351 353 355 359 6 9 4 1 354 346 338 324 314 309 307 307 306 306 306 306 305 304 303 300 296 293 288 283 279 275 273 273 274
232 237 240 244 254 267 277 283 291 300 317 322 323 326 334 341 350 355 0 4 8 9 6 2 356 352 343 326 315 309 307 307 305 305 304 304 304 304 303 301 300 297 293 289 284 279 276 276 276
242 246 252 255 261 271 283 296 298 294 300 307 308 315 324 335 347 355 1 5 6 5 5 7 359 357 349 337 327 313 306 304 302 303 305 304 304 303 302 300 299 297 296 294 292 288 285 284 284
245 252 255 260 265 272 287 299 295 291 293 292 295 304 315 327 340 350 354 358 0 359 358 359 353 353 348 337 328 317 305 298 296 297 300 301 300 300 299 298 298 297 297 298 297 295 293 290 289
243 252 256 259 263 269 282 292 290 282 280 281 287 295 305 317 329 337 341 345 348 349 348 348 348 347 341 333 324 313 302 298 297 296 299 301 301 301 301 301 302 303 303 304 303 300 297 295 294
243 250 253 255 259 264 275 281 276 270 273 277 282 289 298 308 320 328 332 335 337 339 339 338 339 338 336 331 323 315 307 304 303 304 305 306 306 307 308 309 308 307 307 306 305 304 301 298 297
240 245 248 251 255 260 271 275 270 264 265 270 275 281 290 300 310 318 324 329 331 331 331 332 333 334 334 331 328 323 319 317 315 316 316 316 316 316 314 313 311 309 307 305 304 303 301 298 296
240 243 243 247 253 260 266 269 264 258 259 262 266 272 281 290 300 309 318 324 326 324 324 326 328 331 333 333 333 332 329 329 328 326 325 323 321 319 317 314 312 309 307 305 302 301 299 298 296
242 243 242 244 252 258 262 263 258 256 256 259 262 266 273 280 293 303 313 318 319 318 318 319 323 326 330 334 336 337 337 335 333 331 328 325 323 321 318 315 312 310 307 305 302 300 298 297 295
244 244 243 242 250 255 258 259 256 255 257 259 260 263 269 277 288 297 307 312 313 313 313 316 319 321 325 329 332 335 336 337 336 334 332 329 327 324 322 319 315 312 309 306 303 301 299 297 295
243 245 245 241 245 251 254 256 256 256 258 261 263 263 267 276 284 293 301 306 308 308 311 314 315 316 319 322 325 328 330 332 333 332 332 331 329 327 325 321 317 313 310 306 303 301 299 297 295
243 245 245 241 243 248 251 254 255 256 259 262 265 264 264 269 278 286 294 302 304 307 310 311 311 312 314 317 319 321 323 325 326 326 327 327 327 326 324 321 317 313 310 306 303 301 298 296 294
244 246 246 244 243 248 251 253 254 256 258 262 264 263 263 267 274 282 291 297 301 304 306 309 310 310 312 313 314 314 316 318 320 321 322 323 323 323 322 319 316 312 309 306 303 301 298 295 293
247 247 247 244 242 244 250 253 254 255 257 260 261 261 262 266 273 280 287 292 296 299 302 304 306 307 308 309 308 309 311 313 314 315 317 318 319 319 319 317 315 312 309 306 304 302 299 296 293
248 247 247 245 244 244 247 254 257 257 257 259 260 260 262 266 272 278 285 288 291 294 297 299 301 302 303 304 304 305 307 309 310 311 313 314 315 317 317 316 314 312 310 308 305 302 299 296 294
247 245 246 247 247 248 249 254 258 258 260 262 263 264 266 269 272 276 281 284 288 291 293 294 295 297 298 300 300 301 303 306 307 308 310 312 314 316 316 315 313 311 310 307 305 302 300 297 295
250 248 247 248 249 253 254 255 258 258 260 263 266 269 270 271 273 276 278 282 285 288 289 290 292 295 296 298 299 299 301 303 305 308 310 312 313 314 314 312 311 310 309 307 305 304 302 299 297
253 250 248 250 252 255 255 256 257 259 261 265 268 271 272 273 274 275 277 279 281 284 285 288 291 292 294 296 297 298 300 302 305 308 309 310 311 311 311 311 311 310 309 308 306 305 302 300 297
246 247 248 249 252 254 255 259 261 261 265 270 274 274 273 273 274 275 275 276 278 280 284 287 288 290 293 294 295 297 298 301 304 306 307 309 310 310 311 312 311 310 308 306 305 303 301 299 298
242 241 241 245 252 256 260 261 264 266 270 273 275 275 273 272 271 272 274 277 279 281 284 286 289 291 293 293 293 294 297 301 304 306 307 309 310 311 312 311 309 307 305 304 302 301 300 299 299
238 238 241 245 250 256 261 265 269 272 274 276 276 276 276 275 274 274 277 279 281 282 284 286 289 290 291 291 292 296 301 306 308 308 308 309 310 312 312 310 308 306 304 303 302 302 301 300 299
238 240 242 246 250 254 261 266 270 274 275 277 278 278 279 279 279 280 282 284 285 286 287 290 289 287 288 290 295 302 308 310 310 309 309 310 311 311 310 308 306 305 305 305 304 304 303 302 301
Height
5881 5882 5883 5885 5887 5889 5890 5891 5893 5894 5894 5893 5892 5892 5891 5890 5889 5890 5887 5885 5884 5883 5882 5881 5879 5878 5878 5877 5877 5878 5879 5880 5881 5882 5883 5883 5883 5884 5884 5885 5885 5885 5885 5885 5885 5885 5885 5886 5886
5880 5881 5883 5885 5886 5888 5890 5891 5893 5893 5893 5892 5891 5891 5890 5889 5887 5886 5884 5883 5882 5881 5880 5878 5877 5876 5875 5875 5875 5876 5877 5878 5879 5880 5880 5880 5881 5881 5881 5882 5882 5881 5881 5881 5881 5881 5881 5881 5882
5879 5880 5883 5885 5886 5888 5890 5892 5892 5892 5892 5891 5890 5890 5889 5888 5887 5885 5883 5882 5881 5880 5878 5877 5876 5875 5874 5874 5874 5875 5875 5876 5877 5878 5878 5878 5878 5878 5878 5878 5878 5878 5877 5877 5877 5876 5876 5876 5877
5879 5881 5883 5886 5887 5889 5890 5892 5892 5891 5891 5890 5890 5889 5889 5888 5886 5884 5883 5881 5880 5879 5878 5876 5875 5874 5873 5873 5873 5874 5874 5875 5875 5876 5876 5875 5875 5875 5875 5875 5875 5874 5874 5873 5873 5872 5872 5871 5871
5879 5881 5883 5886 5888 5889 5890 5891 5891 5890 5890 5889 5889 5889 5888 5888 5885 5883 5882 5880 5879 5878 5877 5876 5874 5873 5873 5873 5873 5873 5873 5873 5874 5874 5874 5873 5873 5872 5872 5872 5871 5870 5870 5869 5868 5868 5867 5866 5866
5879 5881 5884 5886 5887 5888 5889 5889 5889 5888 5888 5888 5889 5889 5888 5886 5885 5882 5881 5879 5878 5877 5876 5875 5874 5873 5873 5872 5872 5872 5872 5873 5872 5872 5872 5871 5870 5870 5869 5868 5868 5867 5866 5866 5865 5863 5862 5862 5861
5880 5881 5883 5885 5886 5886 5887 5887 5887 5887 5887 5887 5888 5888 5887 5885 5884 5882 5880 5878 5877 5875 5875 5874 5873 5872 5872 5872 5872 5872 5871 5871 5871 5870 5870 5869 5868 5867 5866 5865 5864 5863 5862 5861 5860 5859 5858 5857 5856
5878 5881 5881 5883 5884 5884 5884 5884 5885 5885 5885 5886 5887 5887 5886 5885 5883 5881 5879 5877 5876 5874 5874 5873 5872 5872 5871 5871 5870 5870 5869 5869 5868 5867 5866 5865 5864 5863 5862 5861 5859 5858 5857 5856 5855 5854 5853 5851 5850
5878 5880 5880 5881 5882 5882 5882 5882 5883 5883 5883 5884 5885 5885 5885 5884 5882 5881 5878 5876 5875 5873 5872 5872 5871 5871 5870 5869 5868 5868 5867 5866 5865 5863 5862 5861 5860 5858 5857 5856 5854 5853 5852 5850 5849 5848 5847 5845 5844
5877 5878 5879 5880 5880 5880 5880 5880 5881 5881 5882 5883 5884 5883 5883 5882 5881 5880 5878 5876 5874 5873 5872 5871 5870 5869 5868 5867 5866 5865 5864 5863 5861 5860 5858 5857 5855 5854 5852 5851 5849 5848 5846 5845 5843 5842 5841 5839 5838
5875 5875 5877 5877 5878 5878 5877 5878 5878 5879 5880 5882 5882 5882 5881 5881 5880 5879 5877 5876 5874 5873 5871 5870 5869 5867 5866 5865 5863 5862 5861 5859 5858 5856 5854 5853 5851 5849 5848 5846 5844 5842 5841 5839 5837 5836 5834 5833 5832
5872 5873 5874 5875 5875 5875 5876 5876 5876 5876 5879 5880 5880 5880 5879 5879 5879 5878 5877 5875 5873 5872 5870 5869 5867 5865 5864 5862 5861 5859 5857 5856 5854 5852 5850 5849 5847 5845 5843 5842 5839 5837 5835 5833 5831 5830 5828 5826 5824
5869 5870 5872 5873 5873 5873 5873 5873 5873 5874 5876 5877 5877 5877 5877 5877 5877 5876 5875 5873 5872 5871 5869 5867 5865 5863 5862 5860 5858 5856 5854 5852 5850 5848 5846 5844 5842 5841 5839 5837 5834 5832 5830 5827 5825 5823 5821 5818 5816
5865 5867 5869 5870 5870 5871 5871 5871 5871 5872 5873 5874 5875 5875 5875 5875 5875 5874 5872 5871 5869 5868 5867 5864 5863 5861 5859 5857 5855 5852 5850 5848 5846 5844 5842 5840 5838 5836 5834 5831 5829 5826 5824 5821 5819 5817 5814 5811 5808
5862 5865 5867 5867 5867 5867 5868 5868 5868 5868 5869 5870 5871 5872 5872 5872 5872 5871 5869 5867 5866 5865 5863 5861 5859 5858 5856 5854 5851 5849 5847 5844 5842 5840 5837 5835 5833 5830 5828 5826 5823 5821 5818 5815 5812 5810 5807 5803 5800
5858 5861 5862 5863 5863 5864 5866 5866 5864 5863 5864 5866 5867 5868 5869 5870 5869 5868 5866 5864 5862 5861 5859 5858 5856 5854 5852 5850 5848 5845 5843 5840 5838 5835 5833 5830 5828 5825 5822 5820 5817 5814 5811 5808 5804 5801 5797 5794 5790
5854 5855 5857 5859 5859 5859 5860 5860 5860 5858 5859 5860 5862 5863 5865 5866 5865 5864 5862 5860 5858 5856 5855 5853 5851 5849 5848 5846 5844 5841 5839 5836 5833 5830 5827 5824 5821 5818 5815 5812 5809 5805 5801 5797 5794 5790 5785 5781 5777
5847 5849 5852 5854 5854 5853 5853 5853 5854 5853 5854 5855 5856 5858 5860 5861 5860 5859 5857 5856 5854 5851 5849 5848 5846 5844 5843 5841 5838 5836 5832 5829 5826 5823 5820 5817 5813 5810 5806 5802 5798 5794 5789 5785 5780 5775 5771 5767 5763
5840 5842 5846 5849 5849 5846 5846 5846 5848 5848 5848 5849 5851 5852 5854 5855 5854 5853 5852 5850 5848 5846 5843 5841 5840 5838 5836 5834 5831 5828 5825 5822 5819 5816 5812 5808 5804 5800 5796 5792 5787 5782 5777 5772 5767 5762 5757 5752 5747
5833 5835 5839 5843 5842 5838 5838 5839 5841 5842 5843 5845 5846 5846 5847 5848 5848 5847 5846 5844 5842 5839 5837 5835 5832 5830 5828 5825 5822 5819 5816 5814 5811 5807 5803 5799 5795 5790 5785 5781 5775 5770 5764 5758 5753 5747 5742 5736 5731
5826 5829 5832 5835 5834 5831 5831 5831 5834 5835 5837 5839 5840 5841 5841 5842 5842 5841 5840 5838 5835 5833 5830 5828 5825 5822 5819 5817 5814 5812 5808 5805 5802 5799 5795 5790 5785 5780 5774 5769 5763 5757 5751 5744 5738 5732 5726 5720 5715
5819 5823 5824 5825 5826 5824 5824 5822 5827 5828 5831 5833 5834 5835 5835 5836 5835 5834 5833 5831 5829 5827 5824 5821 5818 5815 5812 5808 5806 5803 5801 5798 5794 5790 5786 5781 5775 5769 5763 5757 5750 5743 5736 5729 5722 5715 5708 5703 5698
5812 5814 5814 5815 5816 5817 5817 5815 5818 5821 5824 5827 5828 5828 5829 5829 5829 5828 5826 5824 5822 5820 5817 5814 5811 5808 5804 5801 5798 5796 5793 5789 5786 5782 5777 5771 5765 5758 5751 5743 5735 5727 5720 5712 5704 5697 5691 5686 5682
5803 5805 5805 5806 5807 5808 5812 5810 5809 5814 5817 5820 5821 5821 5821 5822 5822 5821 5819 5817 5815 5813 5810 5807 5804 5800 5797 5794 5791 5788 5784 5781 5777 5772 5767 5760 5752 5744 5736 5728 5720 5712 5704 5697 5689 5682 5676 5672 5669
5795 5798 5798 5798 5798 5800 5806 5803 5804 5808 5811 5812 5813 5813 5813 5814 5814 5813 5811 5809 5807 5805 5802 5799 5796 5793 5789 5786 5782 5779 5775 5771 5766 5761 5754 5747 5739 5731 5723 5714 5706 5698 5690 5683 5676 5670 5664 5661 5657
5789 5790 5791 5792 5792 5794 5796 5795 5800 5802 5803 5804 5805 5805 5805 5806 5805 5804 5803 5801 5800 5797 5794 5791 5788 5784 5781 5777 5773 5769 5765 5760 5755 5749 5743 5736 5728 5720 5710 5702 5693 5685 5677 5670 5664 5659 5654 5650 5647
5781 5782 5785 5786 5785 5785 5787 5789 5792 5795 5797 5797 5797 5797 5797 5797 5797 5796 5794 5793 5791 5789 5785 5782 5779 5775 5771 5767 5763 5759 5754 5749 5744 5739 5732 5724 5716 5707 5698 5689 5681 5673 5666 5660 5654 5649 5645 5640 5636
5775 5777 5778 5778 5778 5777 5779 5781 5786 5789 5790 5791 5790 5790 5789 5789 5788 5787 5786 5785 5783 5780 5776 5773 5769 5765 5761 5756 5752 5748 5743 5738 5733 5726 5719 5711 5702 5693 5685 5677 5670 5662 5656 5650 5645 5639 5634 5628 5623
5769 5771 5771 5772 5772 5772 5771 5776 5780 5782 5783 5783 5783 5783 5782 5781 5780 5779 5778 5776 5774 5770 5767 5763 5759 5754 5750 5745 5741 5737 5732 5727 5721 5713 5705 5697 5689 5680 5672 5665 5658 5652 5645 5640 5634 5627 5621 5615 5608
5763 5764 5765 5766 5766 5765 5764 5770 5773 5774 5775 5776 5776 5775 5774 5773 5772 5771 5770 5767 5764 5760 5757 5752 5748 5743 5738 5734 5730 5725 5720 5714 5707 5700 5692 5684 5676 5668 5661 5654 5647 5640 5634 5628 5621 5614 5606 5599 5591